Airfield :
LOGIN :

Register | Disclaimer

   EN    FR    IT 

 










Legend :    VFR   Marginal VFR   IFR   Intensive IFR   Very Intensive IFR
Visi :
Ceiling :
>= 8 km
>= 3000ft
5 to 8 km
1000 to 3000 ft
1500m to 5 km
500 to 1000 ft
800 to 1500m
200 to 500 ft
< 800m
< 200 ft
Symbols :   Thunderstorms  Fog  Heavy snow  Heavy precipitations  Wind > 20 kt
SIGMETs :     Misc.  Thunderstorms  Icing  Turbulence  Mountain Waves  Volcanic Ashes






- Airport Elevation : 49 ft
- IATA code : GLZ


EHGR - Gilze-Rijen Airbase

CURRENT METAR :
  • 222325Z AUTO 36006KT 320V040 9999 FEW026 OVC061 13/10 Q1020 BLU

EXPIRED METARs :
  • 222255Z AUTO 36006KT 300V070 9999 OVC062 13/10 Q1020 BLU
  • 222225Z AUTO 35003KT 310V050 9999 BKN034 OVC062 12/11 Q1020 REDZ BLU
  • 222155Z AUTO 34004KT 290V040 9999 DZ FEW035 OVC061 13/11 Q1020 BLU
  • 222125Z AUTO 36003KT 300V050 9999 DZ BKN034 OVC061 13/11 Q1020 BLU
  • 222055Z AUTO 02006KT 300V050 9999 -RA FEW015CB BKN037 OVC043 13/11 Q1019 RERA REDZ BLU

Expired Forecast.



MET'MAP, your aeronautical weather chart ! - Copyright ORBIFLY December 2007 - Disclaimer

ORBIFLY MET'MAP TEAM :

Programming & Development : Alexandra Zaïnal
Concept & original design : Baudouin d'Aumeries
Assistance for programming : Marc-Olivier Méhu
Technical & hardware support : Manuel Goepfert

Contact : metmap@orbifly.com




SOURCES & CREDITS :

   NOAA